COSMOS 2475 (743) (37869 NORAD) Tracking and Keplerian Element Data

This shows tracking and keplerian element data for the satellite.

Feedback or suggestion? Click here.




ElementValue
Catalog37869
NameCOSMOS 2475 (743)
Epoch Orbit5465
Epoch Day315.60921178
Epoch Year2018
RAAN166.9476
Inclination64.5054
Eccentricity0.0018633
Argument of Perigee266.1685
Mean Anonmoly154.6143
Mean Motion2.13102164
Decay Rate4.1E-07
L11 37869U 11064C 18315.60921178 .00000041 00000-0 00000-0 0 9992
L22 37869 64.5054 166.9476 0018633 266.1685 154.6143 2.13102164 54657

Live tracking and technical data element details for COSMOS 2475 (743) (NORAD 37869). COSMOS 2475 (743) can be tracked NOW for your location showing map with azimuth and elevation plus other details from your city location.

Track the satellite on the map from your city or location and see movement details for azimuth, elevation, latitude, longitude, range, height, and movement on the map or in text.







IsCatalogInMostPopularTable: catalog: 37869, numindb: 52
Update: records affected: 1



GetName: 37869 COSMOS 2475 (743)

Hit Count: updated at: Mon, 12 Nov 2018 21:47:20 GMT